Location: Bluff Heights
(33.7692°N, 118.1592°W)
Time: 09:30:42
(UTC+00:00)

Tiros 1 - Pass Details

Date: 01 August 2021
Orbit: 630 x 663 km, 48.4° (Epoch: 22 September)

Event Time Altitude Azimuth Distance (km) Brightness Sun altitude
Enters shadow 08:35:19 - 305° (NW) 2,966 10.8 -37.6°
Rises 08:35:22 0° 305° (NW) 2,945 - -37.6°
Reaches altitude 10° 08:37:44 10° 303° (WNW) 2,028 - -37.5°
Maximum altitude 08:42:21 65° 222° (SW) 698 - -37.3°
Drops below altitude 10° 08:46:54 10° 141° (SE) 2,002 - -37.1°
Sets 08:49:13 0° 138° (SE) 2,904 - -36.9°
